OE3MNS-12 Weather Reports


Display with metric or nautical units.
time (UTC)temp
F
wind
direction
speed
MPH
gust
MPH
rain 1hr
in
rain 24hr
in
rain mn
in
humidity
%
barometer
mb
20260505190019 69 186 3.0 8.0 0.00 0.00 0.00 44 1004.5
20260505185143 69 181 2.0 6.0 0.00 0.00 0.00 43 1004.4
20260505184039 70 175 2.0 4.0 0.00 0.00 0.00 42 1004.3
20260505183018 70 177 3.0 6.0 0.00 0.00 0.00 42 1004.2
20260505182019 71 157 3.0 7.0 0.00 0.00 0.00 41 1004.3
20260505181019 72 151 3.0 8.0 0.00 0.00 0.00 40 1004.2
20260505180041 72 168 4.0 10.0 0.00 0.00 0.00 39 1004.2
20260505175017 73 165 4.0 11.0 0.00 0.00 0.00 39 1004.1
20260505174020 74 159 4.0 11.0 0.00 0.00 0.00 38 1004.1
20260505173017 74 147 3.0 8.0 0.00 0.00 0.00 38 1004.1
20260505172020 75 117 4.0 11.0 0.00 0.00 0.00 37 1003.9
20260505171018 76 93 3.0 8.0 0.00 0.00 0.00 36 1004.0
20260505170020 77 92 3.0 8.0 0.00 0.00 0.00 36 1004.0
20260505165517 77 142 4.0 14.0 0.00 0.00 0.00 35 1004.1
20260505164520 77 136 3.0 14.0 0.00 0.00 0.00 35 1004.1
20260505163525 78 154 6.0 13.0 0.00 0.00 0.00 34 1004.2
20260505162520 79 149 3.0 11.0 0.00 0.00 0.00 32 1004.1
20260505161518 79 161 6.0 15.0 0.00 0.00 0.00 31 1004.3
20260505160520 80 173 9.0 18.0 0.00 0.00 0.00 30 1004.2
20260505152545 80 144 6.0 21.0 0.00 0.00 0.00 29 1004.3
20260505151519 81 119 6.0 19.0 0.00 0.00 0.00 28 1004.1
20260505150521 82 125 6.0 18.0 0.00 0.00 0.00 27 1004.3
20260505125021 86 102 3.0 8.0 0.00 0.00 0.00 22 1005.7